Mount Carmel, IL

11:52 PM CST on December 17, 2017 (GMT -0600)
Mount Carmel Municipal

Weather History for KAJG - October, 2012

Change the Weather History Date:

Friday, October 12, 2012

  Actual Average (KLWV) Record (KLWV)
Temperature  
Mean Temperature 57 °F -  
Max Temperature 68 °F 68 °F 87 °F (1997)
Min Temperature 46 °F 44 °F 34 °F (2006)
Degree Days  
Heating Degree Days 8    
Growing Degree Days 7 (Base 50)    
Moisture  
Dew Point 46 °F    
Average Humidity 71    
Maximum Humidity 94    
Minimum Humidity 40    
Precipitation  
Precipitation 0.03 in - - ()
Sea Level Pressure  
Sea Level Pressure 30.28 in    
Wind  
Wind Speed 3 mph (ENE)    
Max Wind Speed 13 mph    
Max Gust Speed 20 mph    
Visibility 10 miles    
Events Rain    
Averages and records for this station are not official NWS values.
T = Trace of Precipitation, MM = Missing Value Source: NWS Daily Summary

Daily Weather History Graph

Daily Weather History Graph

Search for Another Location

Airport or City:

Trip Planner

Search our weather history database for the weather conditions in past years. The results will help you decide how hot, cold, wet, or windy it might be!

Date:

Astronomy

Oct. 12, 2012 Rise Set
Actual Time 6:57 AM CDT 6:16 PM CDT
Civil Twilight 6:30 AM CDT 6:42 PM CDT
Nautical Twilight 6:00 AM CDT 7:13 PM CDT
Astronomical Twilight 5:29 AM CDT 7:44 PM CDT
Moon 3:42 AM CDT (10/12) 4:24 PM CDT (10/12)
Length of Visible Light 12h 11m
Length of Day
11h 18m
Waning Crescent, 10% of the Moon is Illuminated
Oct 12
Waning Crescent
Oct 15
New
Oct 21
First Quarter
Oct 29
Full
Nov 6
Last Quarter

Hourly Weather History & Observations

Time (CDT) Temp. Windchill Dew Point Humidity Pressure Visibility Wind Dir Wind Speed Gust Speed Precip Events Conditions
12:15 AM 50.0 °F - 44.6 °F 82% 30.19 in 10.0 mi Calm Calm - N/A   Clear
12:35 AM 50.0 °F - 44.6 °F 82% 30.20 in 10.0 mi Calm Calm - N/A   Clear
12:55 AM 48.2 °F - 44.6 °F 87% 30.21 in 10.0 mi West 3.5 mph - N/A   Scattered Clouds
1:15 AM 48.2 °F - 44.6 °F 87% 30.21 in 10.0 mi NNW 3.5 mph - N/A   Mostly Cloudy
1:35 AM 51.8 °F - 44.6 °F 76% 30.21 in 7.0 mi Calm Calm - 0.01 in Rain Heavy Rain
1:55 AM 50.0 °F - 46.4 °F 87% 30.22 in 10.0 mi Calm Calm - 0.03 in Rain Light Rain
2:15 AM 51.8 °F - 48.2 °F 88% 30.22 in 10.0 mi Calm Calm - N/A   Overcast
2:35 AM 51.8 °F - 48.2 °F 88% 30.22 in 10.0 mi Calm Calm - N/A   Overcast
3:15 AM 51.8 °F - 48.2 °F 88% 30.22 in 10.0 mi Calm Calm - N/A   Overcast
3:35 AM 51.8 °F - 48.2 °F 88% 30.22 in 10.0 mi Calm Calm - N/A   Overcast
3:55 AM 51.8 °F - 48.2 °F 88% 30.23 in 10.0 mi Calm Calm - N/A   Overcast
4:15 AM 51.8 °F - 50.0 °F 94% 30.23 in 10.0 mi Calm Calm - N/A   Overcast
4:35 AM 51.8 °F - 50.0 °F 94% 30.24 in 10.0 mi Calm Calm - N/A   Overcast
4:55 AM 51.8 °F - 50.0 °F 94% 30.23 in 10.0 mi Calm Calm - N/A   Overcast
5:15 AM 51.8 °F - 50.0 °F 94% 30.23 in 10.0 mi Calm Calm - N/A   Overcast
5:35 AM 51.8 °F - 50.0 °F 94% 30.23 in 10.0 mi Calm Calm - N/A   Overcast
5:55 AM 51.8 °F - 48.2 °F 88% 30.24 in 10.0 mi Calm Calm - N/A   Overcast
6:15 AM 50.0 °F - 48.2 °F 94% 30.25 in 10.0 mi Calm Calm - N/A   Mostly Cloudy
6:35 AM 50.0 °F - 46.4 °F 87% 30.25 in 10.0 mi Calm Calm - N/A   Overcast
6:55 AM 46.4 °F 45.2 °F 44.6 °F 93% 30.26 in 10.0 mi North 3.5 mph - N/A   Scattered Clouds
7:15 AM 48.2 °F - 46.4 °F 93% 30.27 in 10.0 mi NNW 3.5 mph - N/A   Clear
7:35 AM 48.2 °F - 46.4 °F 93% 30.28 in 10.0 mi North 6.9 mph - N/A   Clear
7:55 AM 51.8 °F - 44.6 °F 76% 30.30 in 10.0 mi NNE 6.9 mph - N/A   Clear
8:15 AM 51.8 °F - 44.6 °F 76% 30.31 in 10.0 mi NNE 8.1 mph - N/A   Clear
8:35 AM 51.8 °F - 44.6 °F 76% 30.32 in 10.0 mi NE 12.7 mph 16.1 mph N/A   Clear
8:55 AM 51.8 °F - 44.6 °F 76% 30.33 in 10.0 mi NE 11.5 mph - N/A   Clear
9:15 AM 53.6 °F - 44.6 °F 72% 30.33 in 10.0 mi NE 12.7 mph 17.3 mph N/A   Clear
9:35 AM 53.6 °F - 44.6 °F 72% 30.34 in 10.0 mi NE 10.4 mph - N/A   Clear
9:55 AM 55.4 °F - 44.6 °F 67% 30.35 in 10.0 mi ENE 11.5 mph - N/A   Clear
10:15 AM 55.4 °F - 44.6 °F 67% 30.36 in 10.0 mi NE 11.5 mph - N/A   Clear
10:35 AM 59.0 °F - 44.6 °F 59% 30.35 in 10.0 mi ENE 9.2 mph - N/A   Scattered Clouds
11:15 AM 60.8 °F - 44.6 °F 55% 30.34 in 10.0 mi East 11.5 mph 16.1 mph N/A   Clear
11:35 AM 60.8 °F - 44.6 °F 55% 30.34 in 10.0 mi NE 10.4 mph 19.6 mph N/A   Clear
11:55 AM 60.8 °F - 44.6 °F 55% 30.34 in 10.0 mi East 10.4 mph 16.1 mph N/A   Clear
12:15 PM 62.6 °F - 44.6 °F 52% 30.35 in 10.0 mi ENE 8.1 mph - N/A   Clear
12:35 PM 62.6 °F - 44.6 °F 52% 30.35 in 10.0 mi NE 6.9 mph - N/A   Clear
12:55 PM 64.4 °F - 44.6 °F 49% 30.34 in 10.0 mi ENE 9.2 mph - N/A   Clear
1:35 PM 64.4 °F - 44.6 °F 49% 30.33 in 10.0 mi Calm Calm - N/A   Clear
1:55 PM 66.2 °F - 44.6 °F 46% 30.33 in 5.0 mi Calm Calm - N/A   Haze
2:15 PM 66.2 °F - 44.6 °F 46% 30.32 in 10.0 mi East 5.8 mph - N/A   Clear
2:35 PM 68.0 °F - 44.6 °F 43% 30.31 in 10.0 mi NE 4.6 mph - N/A   Clear
2:55 PM 66.2 °F - 44.6 °F 46% 30.30 in 7.0 mi ENE 4.6 mph - N/A   Clear
3:15 PM 68.0 °F - 42.8 °F 40% 30.30 in 10.0 mi Calm Calm - N/A   Clear
3:35 PM 66.2 °F - 44.6 °F 46% 30.30 in 10.0 mi East 5.8 mph - N/A   Clear
3:55 PM 68.0 °F - 44.6 °F 43% 30.29 in 10.0 mi NNE 5.8 mph - N/A   Clear
4:15 PM 66.2 °F - 44.6 °F 46% 30.29 in 10.0 mi NE 8.1 mph - N/A   Clear
4:35 PM 66.2 °F - 44.6 °F 46% 30.28 in 10.0 mi NE 4.6 mph - N/A   Clear
5:15 PM 64.4 °F - 44.6 °F 49% 30.28 in 10.0 mi ENE 5.8 mph - N/A   Clear
5:55 PM 62.6 °F - 44.6 °F 52% 30.28 in 10.0 mi ENE 5.8 mph - N/A   Clear
6:15 PM 60.8 °F - 46.4 °F 59% 30.27 in 10.0 mi ENE 5.8 mph - N/A   Clear
6:35 PM 60.8 °F - 44.6 °F 55% 30.27 in 10.0 mi NE 5.8 mph - N/A   Clear
6:55 PM 59.0 °F - 44.6 °F 59% 30.27 in 10.0 mi NE 5.8 mph - N/A   Clear
7:15 PM 59.0 °F - 46.4 °F 63% 30.28 in 10.0 mi NE 5.8 mph - N/A   Clear
7:35 PM 57.2 °F - 46.4 °F 67% 30.28 in 10.0 mi NE 5.8 mph - N/A   Clear
7:55 PM 57.2 °F - 46.4 °F 67% 30.28 in 10.0 mi NE 4.6 mph - N/A   Clear
8:15 PM 55.4 °F - 46.4 °F 72% 30.28 in 10.0 mi Calm Calm - N/A   Clear
8:35 PM 55.4 °F - 46.4 °F 72% 30.29 in 10.0 mi ENE 4.6 mph - N/A   Clear
9:15 PM 53.6 °F - 46.4 °F 77% 30.28 in 10.0 mi East 4.6 mph - N/A   Clear
9:35 PM 51.8 °F - 46.4 °F 82% 30.28 in 10.0 mi East 5.8 mph - N/A   Scattered Clouds
9:55 PM 53.6 °F - 48.2 °F 82% 30.28 in 10.0 mi ENE 6.9 mph - N/A   Mostly Cloudy
10:15 PM 55.4 °F - 48.2 °F 77% 30.28 in 10.0 mi East 8.1 mph - N/A   Overcast
10:35 PM 53.6 °F - 46.4 °F 77% 30.27 in 7.0 mi East 8.1 mph - N/A   Scattered Clouds
10:55 PM 53.6 °F - 46.4 °F 77% 30.27 in 7.0 mi East 9.2 mph - N/A   Clear
11:15 PM 53.6 °F - 46.4 °F 77% 30.27 in 7.0 mi East 6.9 mph - N/A   Clear
11:35 PM 53.6 °F - 46.4 °F 77% 30.26 in 7.0 mi ESE 6.9 mph - N/A   Mostly Cloudy
11:55 PM 53.6 °F - 46.4 °F 77% 30.26 in 10.0 mi ESE 6.9 mph - N/A   Scattered Clouds